AIC765 VAAH-VIDP

Flight info

Callsign AIC765
Flight time N/A
Altitude 37000
Route UUD1B UUD A347 UKASO UKASO7F
Aircraft A320/M-SDE3FGHIRWY/LB1

Departure

Time N/A
Airport Sardar Vallabh Patel International Airport (VAAH)

Arrival

Time 2026-05-05 19:31
Airport Indira Gandhi International Airport (VIDP)
Time Latitude Longitude Altitude Speed Heading
2026-05-05 18:39 25.32956 74.35007 36909 ft 473 kts 22°
2026-05-05 18:40 25.38656 74.38674 36903 ft 474 kts 22°
2026-05-05 18:40 25.44319 74.42322 36895 ft 474 kts 22°
2026-05-05 18:41 25.50017 74.45999 36904 ft 474 kts 22°
2026-05-05 18:41 25.55722 74.49679 36904 ft 474 kts 22°
2026-05-05 18:42 25.61421 74.53357 36909 ft 474 kts 22°
2026-05-05 18:42 25.67134 74.57048 36911 ft 475 kts 22°
2026-05-05 18:43 25.72838 74.60745 36909 ft 475 kts 22°
2026-05-05 18:43 25.78547 74.64447 36925 ft 475 kts 22°
2026-05-05 18:44 25.84255 74.68150 36917 ft 475 kts 22°
2026-05-05 18:44 25.89972 74.71857 36913 ft 476 kts 22°
2026-05-05 18:45 25.95640 74.75545 36915 ft 476 kts 22°
2026-05-05 18:45 26.01351 74.79272 36914 ft 476 kts 22°
2026-05-05 18:46 26.07064 74.82997 36951 ft 476 kts 22°
2026-05-05 18:46 26.12785 74.86728 36932 ft 476 kts 22°
2026-05-05 18:47 26.18499 74.90463 36920 ft 477 kts 22°
2026-05-05 18:47 26.24223 74.94202 36916 ft 477 kts 22°
2026-05-05 18:48 26.29918 74.97927 36913 ft 477 kts 22°
2026-05-05 18:48 26.35640 75.01682 36918 ft 477 kts 22°
2026-05-05 18:49 26.41364 75.05444 36939 ft 477 kts 22°
2026-05-05 18:49 26.47093 75.09205 36945 ft 478 kts 22°
2026-05-05 18:50 26.52825 75.12956 36938 ft 478 kts 22°
2026-05-05 18:50 26.58565 75.16706 36941 ft 478 kts 22°
2026-05-05 18:51 26.64306 75.20466 36935 ft 478 kts 22°
2026-05-05 18:51 26.70050 75.24239 36972 ft 479 kts 22°
2026-05-05 18:52 26.75833 75.27813 36937 ft 464 kts 11°
2026-05-05 18:52 26.78903 75.28576 36936 ft 443 kts 354°
2026-05-05 18:52 26.81894 75.28315 36933 ft 423 kts 338°
2026-05-05 18:53 26.87289 75.26085 36915 ft 415 kts 331°
2026-05-05 18:53 26.92652 75.23652 36504 ft 416 kts 331°
2026-05-05 18:54 26.95339 75.22421 35767 ft 418 kts 331°
2026-05-05 18:54 26.98028 75.21168 35027 ft 420 kts 331°
2026-05-05 18:54 27.00725 75.19885 34342 ft 422 kts 331°
2026-05-05 18:54 27.03419 75.18573 33594 ft 423 kts 331°
2026-05-05 18:55 27.06113 75.17234 32763 ft 424 kts 331°
2026-05-05 18:55 27.08634 75.15574 31963 ft 418 kts 317°
2026-05-05 18:55 27.10556 75.13170 31151 ft 415 kts 301°
2026-05-05 18:55 27.11702 75.10201 30382 ft 419 kts 284°
2026-05-05 18:56 27.11904 75.06921 30070 ft 430 kts 268°
2026-05-05 18:56 27.11188 75.03615 29653 ft 440 kts 253°
2026-05-05 18:56 27.10107 75.00423 28847 ft 434 kts 260°
2026-05-05 18:56 27.09887 74.97132 28328 ft 419 kts 280°
2026-05-05 18:57 27.10572 74.93974 28083 ft 416 kts 293°
2026-05-05 18:57 27.11882 74.91095 27836 ft 414 kts 304°
2026-05-05 18:57 27.13742 74.88637 27575 ft 413 kts 317°
2026-05-05 18:57 27.16094 74.86792 27319 ft 415 kts 331°
2026-05-05 18:58 27.18824 74.85713 27066 ft 419 kts 346°
2026-05-05 18:58 27.21739 74.85497 26820 ft 425 kts
2026-05-05 18:58 27.24654 74.86160 26581 ft 432 kts 15°
2026-05-05 18:58 27.27344 74.87698 26344 ft 439 kts 31°
2026-05-05 18:59 27.29600 74.90054 26099 ft 448 kts 47°
2026-05-05 18:59 27.31203 74.93072 25853 ft 455 kts 63°
2026-05-05 18:59 27.32384 74.96379 25624 ft 455 kts 64°
2026-05-05 18:59 27.33534 74.99646 25397 ft 454 kts 64°
2026-05-05 19:00 27.34706 75.02982 25157 ft 452 kts 64°
2026-05-05 19:00 27.35839 75.06219 24933 ft 450 kts 64°
2026-05-05 19:00 27.36982 75.09486 24713 ft 448 kts 65°
2026-05-05 19:00 27.38124 75.12744 24484 ft 446 kts 65°
2026-05-05 19:01 27.39261 75.15984 24258 ft 444 kts 65°
2026-05-05 19:01 27.40396 75.19209 24034 ft 442 kts 65°
2026-05-05 19:01 27.41523 75.22422 23817 ft 440 kts 65°
2026-05-05 19:01 27.42644 75.25624 23597 ft 439 kts 65°
2026-05-05 19:02 27.43759 75.28811 23348 ft 437 kts 65°
2026-05-05 19:02 27.44870 75.31986 23084 ft 435 kts 65°
2026-05-05 19:02 27.45974 75.35145 22817 ft 433 kts 65°
2026-05-05 19:02 27.47068 75.38277 22563 ft 431 kts 65°
2026-05-05 19:03 27.48163 75.41413 22296 ft 429 kts 65°
2026-05-05 19:03 27.49252 75.44530 22050 ft 427 kts 65°
2026-05-05 19:03 27.50338 75.47647 21795 ft 426 kts 65°
2026-05-05 19:03 27.51413 75.50742 21543 ft 424 kts 65°
2026-05-05 19:04 27.52486 75.53835 21291 ft 422 kts 65°
2026-05-05 19:04 27.53553 75.56909 21040 ft 420 kts 65°
2026-05-05 19:04 27.54614 75.59971 20786 ft 419 kts 65°
2026-05-05 19:04 27.55669 75.63021 20533 ft 417 kts 65°
2026-05-05 19:05 27.56720 75.66063 20311 ft 415 kts 65°
2026-05-05 19:05 27.57752 75.69044 20067 ft 413 kts 65°
2026-05-05 19:05 27.58796 75.72058 19826 ft 412 kts 65°
2026-05-05 19:05 27.59834 75.75055 19595 ft 410 kts 65°
2026-05-05 19:06 27.60871 75.78047 19354 ft 408 kts 65°
2026-05-05 19:06 27.62105 75.80902 19132 ft 403 kts 55°
2026-05-05 19:06 27.63742 75.83446 18901 ft 398 kts 45°
2026-05-05 19:06 27.65709 75.85601 18671 ft 392 kts 35°
2026-05-05 19:07 27.67939 75.87334 18442 ft 386 kts 26°
2026-05-05 19:07 27.70358 75.88609 18203 ft 381 kts 17°
2026-05-05 19:07 27.72871 75.89484 17950 ft 378 kts 13°
2026-05-05 19:07 27.75390 75.90323 17686 ft 376 kts 13°
2026-05-05 19:08 27.77894 75.91163 17439 ft 375 kts 13°
2026-05-05 19:08 27.80387 75.92002 17178 ft 373 kts 13°
2026-05-05 19:08 27.82869 75.92840 16928 ft 371 kts 13°
2026-05-05 19:08 27.85340 75.93677 16669 ft 370 kts 13°
2026-05-05 19:09 27.87801 75.94511 16417 ft 368 kts 13°
2026-05-05 19:09 27.90219 75.95330 16177 ft 367 kts 13°
2026-05-05 19:09 27.92661 75.96159 15930 ft 365 kts 13°
2026-05-05 19:09 27.95085 75.96981 15675 ft 363 kts 13°
2026-05-05 19:10 27.97503 75.97799 15430 ft 361 kts 13°
2026-05-05 19:10 27.99904 75.98609 15201 ft 360 kts 13°
2026-05-05 19:10 28.02297 75.99417 14964 ft 358 kts 13°
2026-05-05 19:10 28.04675 76.00220 14893 ft 357 kts 13°
2026-05-05 19:11 28.07027 76.01017 14905 ft 344 kts 13°
2026-05-05 19:11 28.09307 76.01760 14910 ft 347 kts 12°
2026-05-05 19:11 28.11657 76.02464 14742 ft 350 kts 11°
2026-05-05 19:11 28.14016 76.03167 14216 ft 350 kts 11°
2026-05-05 19:12 28.16364 76.03866 13739 ft 348 kts 11°
2026-05-05 19:12 28.18697 76.04562 13212 ft 345 kts 11°
2026-05-05 19:12 28.21006 76.05251 12684 ft 342 kts 11°
2026-05-05 19:12 28.23305 76.05937 12155 ft 340 kts 11°
2026-05-05 19:13 28.25583 76.06615 11629 ft 337 kts 11°
2026-05-05 19:13 28.27848 76.07281 11104 ft 335 kts 11°
2026-05-05 19:13 28.30068 76.07930 10601 ft 332 kts 11°
2026-05-05 19:13 28.32294 76.08577 10227 ft 326 kts 11°
2026-05-05 19:14 28.34442 76.09205 10106 ft 312 kts 11°
2026-05-05 19:14 28.36501 76.09812 9991 ft 299 kts 11°
2026-05-05 19:14 28.38474 76.10398 9868 ft 287 kts 11°
2026-05-05 19:14 28.40368 76.10967 9712 ft 277 kts 11°
2026-05-05 19:15 28.42219 76.11526 9378 ft 274 kts 11°
2026-05-05 19:15 28.44059 76.12076 9009 ft 273 kts 11°
2026-05-05 19:15 28.45888 76.12619 8623 ft 271 kts 11°
2026-05-05 19:15 28.47713 76.13153 8224 ft 271 kts 11°
2026-05-05 19:16 28.49536 76.13678 7826 ft 270 kts 11°
2026-05-05 19:16 28.51333 76.14289 7428 ft 271 kts 24°
2026-05-05 19:16 28.52803 76.15641 7034 ft 276 kts 47°
2026-05-05 19:16 28.53978 76.17387 6872 ft 279 kts 51°
2026-05-05 19:17 28.55109 76.19147 6519 ft 279 kts 51°
2026-05-05 19:17 28.56252 76.20925 6108 ft 278 kts 51°
2026-05-05 19:17 28.57395 76.22696 5721 ft 277 kts 51°
2026-05-05 19:17 28.58535 76.24455 5330 ft 275 kts 51°
2026-05-05 19:18 28.59668 76.26193 4952 ft 272 kts 51°
2026-05-05 19:18 28.60744 76.27952 4562 ft 271 kts 62°
2026-05-05 19:18 28.61412 76.29958 4159 ft 270 kts 71°
2026-05-05 19:18 28.61978 76.31992 3769 ft 269 kts 71°
2026-05-05 19:19 28.62540 76.34007 3594 ft 267 kts 71°
2026-05-05 19:19 28.63109 76.36021 3599 ft 268 kts 71°
2026-05-05 19:19 28.63680 76.38036 3600 ft 268 kts 71°
2026-05-05 19:19 28.64251 76.40055 3602 ft 268 kts 71°
2026-05-05 19:20 28.64284 76.40170 3600 ft 268 kts 71°
2026-05-05 19:20 28.64315 76.40280 3603 ft 268 kts 71°
2026-05-05 19:21 28.64634 76.42361 3601 ft 269 kts 93°
2026-05-05 19:21 28.64180 76.44418 3606 ft 270 kts 109°
2026-05-05 19:21 28.63504 76.46387 3604 ft 271 kts 111°
2026-05-05 19:21 28.62788 76.48397 3604 ft 270 kts 111°
2026-05-05 19:22 28.62086 76.50353 3603 ft 271 kts 111°
2026-05-05 19:22 28.61378 76.52337 3605 ft 271 kts 111°
2026-05-05 19:22 28.60675 76.54328 3605 ft 271 kts 111°
2026-05-05 19:22 28.59975 76.56315 3605 ft 271 kts 111°
2026-05-05 19:23 28.59329 76.58323 3605 ft 271 kts 107°
2026-05-05 19:23 28.58797 76.60376 3605 ft 271 kts 105°
2026-05-05 19:23 28.58281 76.62435 3605 ft 270 kts 105°
2026-05-05 19:23 28.57769 76.64498 3605 ft 270 kts 104°
2026-05-05 19:24 28.57524 76.66604 3605 ft 269 kts 87°
2026-05-05 19:24 28.57730 76.68717 3604 ft 267 kts 81°
2026-05-05 19:24 28.57922 76.70068 3600 ft 254 kts 77°
2026-05-05 19:24 28.58519 76.72541 3601 ft 231 kts 72°
2026-05-05 19:25 28.59047 76.74232 3604 ft 225 kts 64°
2026-05-05 19:25 28.59505 76.75289 3601 ft 224 kts 62°
2026-05-05 19:25 28.60231 76.76860 3602 ft 224 kts 61°
2026-05-05 19:25 28.60963 76.78424 3604 ft 224 kts 61°
2026-05-05 19:26 28.61700 76.79983 3612 ft 224 kts 61°
2026-05-05 19:26 28.62437 76.81548 3620 ft 224 kts 65°
2026-05-05 19:26 28.62677 76.83275 3586 ft 225 kts 101°
2026-05-05 19:26 28.62210 76.84972 3531 ft 225 kts 103°
2026-05-05 19:27 28.61611 76.87231 3509 ft 226 kts 108°
2026-05-05 19:27 28.61185 76.88944 3538 ft 226 kts 105°
2026-05-05 19:27 28.60889 76.90101 3504 ft 224 kts 105°
2026-05-05 19:27 28.60396 76.92326 3445 ft 213 kts 105°
2026-05-05 19:28 28.60122 76.93418 3295 ft 213 kts 106°
2026-05-05 19:28 28.59738 76.95052 3036 ft 213 kts 104°
2026-05-05 19:28 28.59406 76.96641 2839 ft 203 kts 105°
2026-05-05 19:28 28.59047 76.98119 2663 ft 184 kts 104°
2026-05-05 19:29 28.58755 76.99484 2367 ft 174 kts 104°
2026-05-05 19:29 28.58462 77.00776 2113 ft 163 kts 105°
2026-05-05 19:29 28.58195 77.01998 1841 ft 157 kts 103°
2026-05-05 19:29 28.57925 77.03181 1669 ft 152 kts 105°
2026-05-05 19:30 28.57651 77.04349 1531 ft 153 kts 103°
2026-05-05 19:30 28.57403 77.05526 1319 ft 152 kts 104°
2026-05-05 19:30 28.57135 77.06686 1110 ft 153 kts 105°
2026-05-05 19:30 28.56862 77.07879 892 ft 157 kts 105°
2026-05-05 19:31 28.56590 77.09058 752 ft 145 kts 104°
2026-05-05 19:31 28.56377 77.09994 747 ft 97 kts 104°
2026-05-05 19:31 28.56247 77.10560 750 ft 54 kts 104°
2026-05-05 19:31 28.56142 77.10852 747 ft 35 kts 130°
2026-05-05 19:32 28.56042 77.10968 745 ft 11 kts 144°
2026-05-05 19:32 28.55985 77.10948 747 ft 8 kts 232°
2026-05-05 19:32 28.55980 77.10893 750 ft 6 kts 283°
2026-05-05 19:32 28.55991 77.10850 750 ft 5 kts 285°
2026-05-05 19:33 28.56000 77.10813 749 ft 8 kts 285°
2026-05-05 19:33 28.56021 77.10716 749 ft 16 kts 284°
2026-05-05 19:33 28.56052 77.10570 750 ft 20 kts 279°
2026-05-05 19:33 28.56094 77.10394 749 ft 26 kts 284°
2026-05-05 19:34 28.56143 77.10179 748 ft 29 kts 284°
2026-05-05 19:34 28.56193 77.09956 749 ft 30 kts 284°
2026-05-05 19:34 28.56234 77.09769 750 ft 16 kts 280°
2026-05-05 19:35 28.56040 77.09668 749 ft 18 kts 193°
2026-05-05 19:35 28.55995 77.09571 747 ft 17 kts 284°
2026-05-05 19:35 28.56027 77.09434 750 ft 19 kts 285°
2026-05-05 19:35 28.56063 77.09286 750 ft 20 kts 285°
2026-05-05 19:36 28.56100 77.09127 750 ft 21 kts 285°
2026-05-05 19:36 28.56141 77.08959 748 ft 23 kts 285°
2026-05-05 19:36 28.56167 77.08816 750 ft 14 kts 256°
2026-05-05 19:36 28.56109 77.08745 747 ft 10 kts 180°
2026-05-05 19:37 28.56059 77.08767 749 ft 3 kts 155°
2026-05-05 19:37 28.56039 77.08777 748 ft 0 kts 158°